[[{"header":{"parameterUnit":"m.s-1","parameterCategory":1,"la1":30.2991,"la2":30.254,"lo1":-89.0895,"lo2":-89.0444,"dy":0.0017,"dx":0.0017,"nx":28,"ny":28,"refTime":"2024-06-15T21:00:00:Z","depth":0,"parameterNumber":2,"parameterNumberName":"U-component_of_WINDS"},"data":[0,0,0,0,0,0,0,0,0,0,0,0,0,0,0,0,0,0,0,0,0,0,0,0,0,0,0,0,0,0,0,0,0,0,0,0,0,0,0,0,0,0,0,0,0,0,0,0,0,0,0,0,0,0,0,0,0,0,-4.3392,-4.3394,0,-4.352,-4.3522,-4.3523,-4.3499,-4.3497,-4.3494,-4.3492,-4.3621,-4.3627,-4.3632,0,0,0,0,0,0,0,0,0,0,0,0,0,-4.3126,-4.3131,-4.3392,-4.3394,-4.3395,-4.352,-4.3522,-4.3523,-4.3499,-4.3496,-4.3494,-4.3491,-4.3619,-4.3626,-4.3633,0,0,0,0,0,0,0,0,0,0,0,0,0,-4.3246,-4.3132,-4.3392,-4.3398,-4.34,-4.352,-4.3522,-4.3524,-4.35,-4.3496,-4.3493,-4.349,-4.3617,-4.3625,-4.3634,-4.3754,0,0,-4.3659,-4.3663,0,0,0,0,0,0,0,0,-4.3239,-4.3256,-4.3396,-4.3398,-4.34,-4.349,-4.3475,-4.3601,-4.3501,-4.3462,-4.3492,-4.3488,-4.358,-4.3591,-4.3623,-4.376,-4.3766,-4.366,-4.3665,-4.3669,-4.3671,0,0,0,0,0,0,0,-4.3231,-4.325,-4.3443,-4.3398,-4.3401,-4.3394,-4.3408,-4.3499,-4.3539,-4.3465,-4.3464,-4.3479,-4.3581,-4.3615,-4.3626,-4.3767,-4.366,-4.3667,-4.3672,-4.3676,-4.4009,-4.4013,0,0,0,0,0,0,-4.3221,-4.3244,-4.3439,-4.3446,-4.331,-4.3402,-4.3417,-4.3465,-4.3538,-4.3546,-4.3482,-4.3478,-4.3602,-4.3616,-4.363,-4.3775,-4.3668,-4.3676,-4.3681,-4.4005,-4.401,-4.4014,0,0,0,0,0,0,-4.3215,-4.3238,-4.3433,-4.3345,-4.3369,-4.341,-4.3464,-4.3469,-4.3503,-4.3551,-4.3557,-4.351,-4.36,-4.3618,-4.3723,-4.3779,-4.368,-4.3688,-4.4001,-4.4007,-4.4012,-4.4066,0,0,0,0,0,0,-4.3208,-4.3237,-4.3283,-4.3346,-4.3374,-4.3525,-4.3468,-4.3474,-4.3518,-4.3513,-4.3578,-4.3586,-4.3599,-4.3711,-4.3732,-4.3789,-4.3694,-4.3996,-4.4004,-4.401,-4.4059,-4.4073,-4.4084,0,0,0,0,0,-4.3198,-4.3293,-4.3285,-4.3309,-4.3433,-4.3528,-4.3544,-4.3558,-4.3522,-4.3569,-4.36,-4.3584,-4.377,-4.3722,-4.3745,-4.3806,-4.3993,-4.4001,-4.401,-4.4054,-4.407,-4.4084,0,0,0,0,0,0,-4.3234,-4.3301,-4.3294,-4.3411,-4.3464,-4.3524,-4.3583,-4.3575,-4.3639,-4.3632,-4.3646,-4.3661,-4.3767,-4.3797,-4.3742,-4.3926,-4.3876,-4.389,-4.3902,-4.3918,-4.393,-4.392,-4.3701,0,0,0,0,0,-4.3256,-4.3328,-4.3383,-4.3481,-4.3508,-4.3541,-4.3583,-4.359,-4.3645,-4.3667,-4.3705,-4.3759,-4.383,-4.3876,-4.3944,-4.4065,-4.4078,-4.4118,-4.413,-4.414,-4.4151,-4.4217,-4.4235,-4.4043,-4.4043,-4.4043,0,0,-4.3301,-4.3347,-4.3391,-4.349,-4.3531,-4.3605,-4.356,-4.3641,-4.3695,-4.3679,-4.378,-4.381,-4.3871,-4.3985,-4.4036,-4.4013,-4.4208,-4.4151,-4.4159,-4.4164,-4.4227,-4.4245,-4.4262,-4.4049,-4.4048,-4.4047,0,0,-4.3421,-4.3464,-4.355,-4.3593,-4.3657,-4.3679,-4.37,-4.3761,-4.3781,-4.3883,-4.3872,-4.3938,-4.4059,-4.4103,-4.4141,-4.4279,-4.4266,-4.4301,-4.4366,-4.4429,-4.4444,-4.4458,-4.4506,-4.4523,-4.4312,-4.4313,-4.4313,0,-4.3469,-4.358,-4.3595,-4.3677,-4.372,-4.371,-4.3797,-4.3838,-4.3921,-4.3951,-4.3924,-4.4077,-4.4117,-4.424,-4.4274,-4.4306,-4.4329,-4.4292,-4.4441,-4.4455,-4.4468,-4.4513,-4.4531,-4.4316,-4.4316,-4.4315,-4.4315,0,-4.3636,-4.3713,-4.3775,-4.3856,-4.3907,-4.3991,-4.4018,-4.4067,-4.407,-4.4094,-4.4198,-4.4247,-4.4324,-4.4354,-4.4357,-4.4478,-4.4461,-4.4438,-4.4388,-4.4489,-4.4532,-4.455,-4.4321,-4.432,-4.4319,-4.4318,0,0,-4.378,-4.3869,-4.3891,-4.3927,-4.3998,-4.4058,-4.4142,-4.4218,-4.4259,-4.4318,-4.4387,-4.4492,-4.4471,-4.4514,-4.4522,-4.4578,-4.4683,-4.4548,-4.455,-4.457,-4.4818,-4.4833,-4.4853,-4.4676,-4.468,-4.4683,-4.4812,0,-4.3905,-4.4053,-4.4069,-4.42,-4.4272,-4.4264,-4.4337,-4.4388,-4.4413,-4.4477,-4.4505,-4.4578,-4.4546,-4.4572,-4.4628,-4.4659,-4.4733,-4.465,-4.474,-4.4743,-4.4723,-4.4876,-4.4893,-4.5013,-4.4829,-4.4832,-4.4834,0,-4.407,-4.4133,-4.4272,-4.4333,-4.4364,-4.4429,-4.45,-4.4562,-4.4619,-4.4634,-4.4683,-4.4684,-4.477,-4.4719,-4.4837,-4.478,-4.4819,-4.484,-4.4845,-4.4852,-4.4793,-4.4886,-4.5052,-4.5069,-4.4861,-4.4859,-4.4857,0,-4.4159,-4.4279,-4.4378,-4.4409,-4.4483,-4.4529,-4.4562,-4.4617,-4.4661,-4.4724,-4.4753,-4.4825,-4.4863,-4.4919,-4.4939,-4.49,-4.5056,-4.5006,-4.5069,-4.5069,-4.51,-4.5097,-4.5273,-4.5129,-4.5128,-4.5128,-4.5128,0,-4.4296,-4.4381,-4.4419,-4.4479,-4.4574,-4.4592,-4.4685,-4.4716,-4.4765,-4.4831,-4.4829,-4.4891,-4.4915,-4.498,-4.4997,-4.5092,-4.511,-4.5123,-4.5126,-4.5122,-4.512,-4.5146,-4.5137,-4.5133,-4.5132,-4.5131,-4.513,0,-4.4411,-4.444,-4.4546,-4.4608,-4.4625,-4.4692,-4.4745,-4.4803,-4.4828,-4.4911,-4.4932,-4.4972,-4.5049,-4.5075,-4.5169,-4.518,-4.529,-4.5287,-4.527,-4.527,-4.5331,-4.5324,-4.5527,-4.5553,-4.5393,-4.5395,-4.5396,0,-4.4495,-4.456,-4.4629,-4.4673,-4.4708,-4.4779,-4.4825,-4.4846,-4.4894,-4.4965,-4.5015,-4.5091,-4.5154,-4.5278,-4.5314,-4.5386,-4.5383,-4.545,-4.5394,-4.5388,-4.5382,-4.5377,-4.5383,-4.5459,-4.5461,-4.5462,-4.5463,0,-4.4642,-4.4653,-4.4719,-4.4791,-4.4846,-4.4903,-4.4959,-4.4995,-4.5024,-4.5078,-4.5157,-4.5206,-4.5302,-4.5377,-4.5451,-4.5484,-4.5479,-4.5481,-4.5499,-4.5494,-4.5481,-4.5487,-4.5296,-4.5475,-4.5474,-4.5473,-4.5473,-4.5472,-4.4743,-4.48,-4.4857,-4.4931,-4.4976,-4.5028,-4.5085,-4.5118,-4.5184,-4.5264,-4.5273,-4.5358,-4.5414,-4.5512,-4.5549,-4.5616,-4.5597,-4.5624,-4.563,-4.5636,-4.564,-4.5473,-4.563,-4.5629,-4.5629,-4.5629,-4.5629,0,-4.4888,-4.4924,-4.4992,-4.507,-4.5128,-4.5119,-4.518,-4.5229,-4.5304,-4.5358,-4.5419,-4.551,-4.5584,-4.5628,-4.5702,-4.5746,-4.5746,-4.5765,-4.5761,-4.5768,-4.5653,-4.5629,-4.5764,-4.5764,-4.5764,-4.5764,-4.5764,-4.5764,-4.497,-4.5066,-4.5084,-4.5202,-4.5238,-4.5321,-4.5357,-4.5405,-4.5447,-4.5549,-4.5611,-4.5639,-4.5688,-4.5766,-4.5833,-4.5844,-4.587,-4.5891,-4.59,-4.5791,-4.5777,-4.5763,-4.5741,-4.5898,-4.5898,-4.601,-4.6011,-4.6012]},{"header":{"parameterUnit":"m.s-1","parameterCategory":1,"la1":30.2991,"la2":30.254,"lo1":-89.0895,"lo2":-89.0444,"dy":0.0017,"dx":0.0017,"nx":28,"ny":28,"refTime":"2024-06-15T21:00:00:Z","depth":0,"parameterNumber":3,"parameterNumberName":"V-component_of_WINDS"},"data":[0,0,0,0,0,0,0,0,0,0,0,0,0,0,0,0,0,0,0,0,0,0,0,0,0,0,0,0,0,0,0,0,0,0,0,0,0,0,0,0,0,0,0,0,0,0,0,0,0,0,0,0,0,0,0,0,0,0,2.229,2.2291,0,2.2338,2.2339,2.2339,2.2323,2.2322,2.2321,2.232,2.2365,2.2368,2.237,0,0,0,0,0,0,0,0,0,0,0,0,0,2.2182,2.2184,2.229,2.2291,2.2291,2.2338,2.2339,2.234,2.2323,2.2322,2.232,2.2319,2.2365,2.2367,2.237,0,0,0,0,0,0,0,0,0,0,0,0,0,2.2229,2.2184,2.229,2.2289,2.2289,2.2338,2.2339,2.234,2.2323,2.2322,2.232,2.2319,2.2364,2.2367,2.237,2.2422,0,0,2.238,2.2382,0,0,0,0,0,0,0,0,2.2226,2.2233,2.2288,2.2289,2.229,2.2323,2.2317,2.2367,2.2324,2.231,2.232,2.2318,2.2352,2.2357,2.2369,2.2424,2.2426,2.2381,2.2383,2.2384,2.2385,0,0,0,0,0,0,0,2.2223,2.2231,2.2309,2.2289,2.229,2.2285,2.229,2.2327,2.2339,2.2311,2.231,2.2316,2.2352,2.2366,2.237,2.2427,2.2381,2.2383,2.2386,2.2387,2.2528,2.253,0,0,0,0,0,0,2.222,2.2228,2.2308,2.2311,2.2254,2.2288,2.2294,2.2314,2.2339,2.2341,2.2318,2.2315,2.2361,2.2366,2.2371,2.2434,2.2384,2.2387,2.2389,2.2526,2.2529,2.2531,0,0,0,0,0,0,2.2218,2.2227,2.2306,2.2269,2.2279,2.2292,2.2314,2.2316,2.2329,2.2344,2.2346,2.2329,2.236,2.2367,2.241,2.2435,2.2389,2.2392,2.2524,2.2527,2.253,2.2559,0,0,0,0,0,0,2.2215,2.2226,2.2247,2.227,2.2281,2.2344,2.2316,2.2318,2.2335,2.2333,2.2355,2.2357,2.2359,2.2405,2.2413,2.2439,2.2394,2.2522,2.2526,2.2529,2.2556,2.2563,2.2568,0,0,0,0,0,2.2211,2.2252,2.2248,2.2257,2.2307,2.2346,2.2352,2.2354,2.2337,2.2357,2.2367,2.2357,2.2432,2.241,2.2419,2.2446,2.2521,2.2525,2.2529,2.2553,2.2561,2.2568,0,0,0,0,0,0,2.223,2.2255,2.225,2.2301,2.2322,2.2343,2.2368,2.2363,2.2387,2.2384,2.2385,2.239,2.2435,2.2445,2.242,2.2498,2.2473,2.2479,2.2489,2.2497,2.2503,2.2499,2.2397,0,0,0,0,0,2.224,2.2271,2.2291,2.2333,2.2344,2.2355,2.2372,2.2372,2.2393,2.2401,2.2414,2.2434,2.2462,2.248,2.2507,2.2558,2.2563,2.2581,2.2587,2.2592,2.2597,2.2625,2.2634,2.2544,2.2544,2.2544,0,0,2.2261,2.2279,2.2298,2.2338,2.2354,2.2385,2.2362,2.2395,2.2418,2.2406,2.2448,2.2458,2.2481,2.2528,2.255,2.2538,2.2623,2.2597,2.2601,2.2603,2.263,2.2639,2.2646,2.2546,2.2546,2.2546,0,0,2.2315,2.2332,2.2369,2.2387,2.2412,2.2419,2.2428,2.2451,2.2458,2.2501,2.2492,2.2519,2.2568,2.2584,2.2599,2.2662,2.2652,2.267,2.2701,2.2729,2.2736,2.2742,2.2764,2.2772,2.2675,2.2675,2.2675,0,2.2337,2.2385,2.2389,2.2424,2.2441,2.2434,2.2471,2.2488,2.252,2.2532,2.2519,2.258,2.2595,2.2646,2.2662,2.2674,2.2684,2.2667,2.2735,2.2741,2.2747,2.2768,2.2776,2.2677,2.2677,2.2677,2.2677,0,2.2411,2.2444,2.2471,2.2504,2.2525,2.2561,2.257,2.2591,2.259,2.2599,2.2642,2.266,2.269,2.2703,2.2702,2.2755,2.2747,2.2734,2.2709,2.2757,2.2777,2.2785,2.268,2.2679,2.2679,2.2678,0,0,2.2476,2.2513,2.2522,2.2538,2.2566,2.2591,2.2627,2.2659,2.2676,2.2699,2.2729,2.2771,2.2761,2.2777,2.2778,2.2803,2.2851,2.2787,2.2788,2.2798,2.2911,2.2919,2.2928,2.2846,2.2848,2.2849,2.2909,0,2.2532,2.2596,2.2601,2.2659,2.2689,2.2684,2.2715,2.2736,2.2745,2.2772,2.2782,2.2812,2.2795,2.2805,2.283,2.284,2.2874,2.2836,2.2873,2.2874,2.2866,2.2939,2.2947,2.3002,2.2916,2.2918,2.2919,0,2.2605,2.2632,2.2693,2.2718,2.2731,2.2759,2.2789,2.2815,2.2838,2.2843,2.2863,2.2861,2.2898,2.2874,2.2924,2.2898,2.2914,2.2922,2.2924,2.2926,2.2898,2.2942,2.302,2.3028,2.2931,2.293,2.2929,0,2.2645,2.2697,2.274,2.2754,2.2784,2.2804,2.2818,2.284,2.2859,2.2885,2.2897,2.2926,2.2942,2.2965,2.2971,2.2953,2.3021,2.2997,2.3025,2.3025,2.3039,2.3037,2.3119,2.3051,2.3051,2.3051,2.305,0,2.2706,2.2743,2.2759,2.2785,2.2827,2.2834,2.2874,2.2887,2.2907,2.2935,2.2932,2.2959,2.2966,2.2993,2.2998,2.3039,2.3046,2.3051,2.3052,2.3051,2.305,2.306,2.3056,2.3053,2.3052,2.3052,2.3052,0,2.2758,2.277,2.2817,2.2843,2.285,2.288,2.2902,2.2927,2.2937,2.2973,2.2982,2.2997,2.3029,2.3038,2.3077,2.3081,2.3128,2.3126,2.3121,2.312,2.3148,2.3145,2.3238,2.325,2.3175,2.3176,2.3176,0,2.2795,2.2824,2.2854,2.2874,2.2889,2.292,2.294,2.2947,2.2968,2.2998,2.302,2.3052,2.3079,2.3131,2.3145,2.3175,2.3172,2.3203,2.3177,2.3175,2.3172,2.317,2.3173,2.3207,2.3208,2.3209,2.3209,0,2.286,2.2865,2.2895,2.2927,2.2951,2.2976,2.3,2.3016,2.3027,2.3051,2.3085,2.3105,2.3146,2.3178,2.3209,2.3222,2.3218,2.3218,2.3226,2.3225,2.322,2.3222,2.3133,2.3215,2.3215,2.3214,2.3214,2.3214,2.2905,2.2931,2.2957,2.299,2.3009,2.3032,2.3057,2.3071,2.31,2.3135,2.3138,2.3175,2.3198,2.3239,2.3255,2.3283,2.3274,2.3286,2.3288,2.3291,2.3293,2.3217,2.3289,2.3289,2.3289,2.3288,2.3288,0,2.297,2.2987,2.3017,2.3052,2.3078,2.3073,2.31,2.3122,2.3155,2.3178,2.3205,2.3244,2.3276,2.3294,2.3325,2.3345,2.3344,2.3353,2.3351,2.3354,2.33,2.3289,2.3353,2.3353,2.3353,2.3353,2.3353,2.3353,2.3006,2.3049,2.3058,2.3111,2.3127,2.3164,2.318,2.3201,2.322,2.3265,2.3292,2.3303,2.3324,2.3358,2.3387,2.3391,2.3402,2.3413,2.3415,2.3364,2.3358,2.3351,2.3341,2.3415,2.3415,2.3467,2.3468,2.3468]}]]